XE2OR-10 Weather Reports


time (UTC)temp
C
wind
direction
speed
KPH
gust
KPH
rain 1hr
cm
rain 24hr
cm
rain mn
cm
humidity
%
barometer
mb
20260506134849 25 133 0.0 0.0 0.00 0.00 0.00 92 1013.4
20260506134352 25 146 0.0 0.0 0.00 0.00 0.00 91 1013.6
20260506133849 25 152 0.0 0.0 0.00 0.00 0.00 91 1013.7
20260506133348 25 152 0.0 0.0 0.00 0.00 0.00 90 1013.4
20260506132849 25 166 0.0 0.0 0.00 0.00 0.00 91 1013.2
20260506132353 25 150 0.0 0.0 0.00 0.00 0.00 91 1013.3
20260506131849 25 151 0.0 0.0 0.00 0.00 0.00 91 1013.3
20260506131352 25 148 0.0 0.0 0.00 0.00 0.00 91 1013.3
20260506130848 25 152 0.0 0.0 0.00 0.00 0.00 91 1013.2
20260506130349 25 145 0.0 0.0 0.00 0.00 0.00 91 1013.1
20260506125848 25 157 0.0 0.0 0.00 0.00 0.00 91 1013.2
20260506125352 25 167 0.0 0.0 0.00 0.00 0.00 91 1013.2
20260506124849 25 153 1.6 3.2 0.00 0.00 0.00 91 1013.3
20260506124352 25 150 0.0 0.0 0.00 0.00 0.00 91 1012.9
20260506123849 25 163 0.0 0.0 0.00 0.00 0.00 91 1013.0
20260506123348 25 163 0.0 0.0 0.00 0.00 0.00 91 1012.8
20260506122849 25 142 1.6 3.2 0.00 0.00 0.00 90 1012.8
20260506122352 25 147 0.0 0.0 0.00 0.00 0.00 90 1012.8
20260506121848 25 152 0.0 0.0 0.00 0.00 0.00 90 1013.1
20260506121352 25 150 0.0 0.0 0.00 0.00 0.00 90 1012.9
20260506120849 25 143 0.0 0.0 0.00 0.00 0.00 90 1012.8
20260506120349 25 155 0.0 0.0 0.00 0.00 0.00 90 1012.8
20260506115849 25 146 0.0 0.0 0.00 0.00 0.00 90 1013.0
20260506115352 25 154 0.0 0.0 0.00 0.00 0.00 90 1012.8
20260506114849 25 153 0.0 0.0 0.00 0.00 0.00 90 1012.7
20260506114352 25 146 0.0 0.0 0.00 0.00 0.00 89 1012.4
20260506113849 25 98 1.6 3.2 0.00 0.00 0.00 89 1012.5
20260506113348 25 146 0.0 0.0 0.00 0.00 0.00 89 1012.3
20260506112849 25 148 0.0 0.0 0.00 0.00 0.00 89 1012.2
20260506112353 25 138 0.0 0.0 0.00 0.00 0.00 89 1012.3
20260506111849 25 122 0.0 0.0 0.00 0.00 0.00 89 1012.1
20260506111352 25 155 1.6 3.2 0.00 0.00 0.00 89 1012.3
20260506110848 25 137 0.0 0.0 0.00 0.00 0.00 89 1012.2
20260506110349 25 150 0.0 0.0 0.00 0.00 0.00 89 1012.0
20260506105848 25 143 1.6 3.2 0.00 0.00 0.00 89 1012.0
20260506105352 25 166 0.0 0.0 0.00 0.00 0.00 88 1011.8
20260506104848 25 169 1.6 3.2 0.00 0.00 0.00 88 1012.0
20260506104352 25 90 1.6 3.2 0.00 0.00 0.00 88 1011.9
20260506103848 25 155 0.0 0.0 0.00 0.00 0.00 88 1011.8
20260506103349 25 170 3.2 4.8 0.00 0.00 0.00 88 1011.6
20260506102848 25 145 0.0 0.0 0.00 0.00 0.00 88 1011.9
20260506102352 25 160 0.0 0.0 0.00 0.00 0.00 88 1011.7
20260506101849 25 164 3.2 4.8 0.00 0.00 0.00 87 1011.6
20260506101352 25 170 1.6 3.2 0.00 0.00 0.00 87 1011.5
20260506100849 25 127 1.6 3.2 0.00 0.00 0.00 87 1011.5
20260506100348 25 118 0.0 0.0 0.00 0.00 0.00 87 1011.5
20260506095849 25 110 3.2 4.8 0.00 0.00 0.00 87 1011.4
20260506095353 25 175 1.6 4.8 0.00 0.00 0.00 87 1011.7
20260506094849 25 143 0.0 0.0 0.00 0.00 0.00 87 1011.5
20260506094353 26 139 4.8 9.7 0.00 0.00 0.00 86 1011.5
20260506093849 26 128 1.6 3.2 0.00 0.00 0.00 86 1011.6
20260506093349 26 147 4.8 6.4 0.00 0.00 0.00 86 1011.6
20260506092849 26 121 4.8 6.4 0.00 0.00 0.00 86 1011.6
20260506092352 26 158 0.0 0.0 0.00 0.00 0.00 86 1011.7
20260506091848 26 142 1.6 3.2 0.00 0.00 0.00 86 1011.9
20260506091352 26 157 0.0 0.0 0.00 0.00 0.00 86 1011.7
20260506090848 26 152 0.0 0.0 0.00 0.00 0.00 86 1011.7
20260506090349 26 147 1.6 3.2 0.00 0.00 0.00 86 1011.6
20260506085848 26 149 0.0 0.0 0.00 0.00 0.00 86 1011.9
20260506085352 26 145 0.0 0.0 0.00 0.00 0.00 86 1011.6
20260506084849 26 135 0.0 0.0 0.00 0.00 0.00 86 1011.7
20260506084352 25 128 0.0 0.0 0.00 0.00 0.00 86 1011.5
20260506083849 25 134 0.0 0.0 0.00 0.00 0.00 86 1011.6
20260506083349 25 120 0.0 0.0 0.00 0.00 0.00 86 1011.6
20260506082849 25 143 0.0 0.0 0.00 0.00 0.00 86 1011.5
20260506082352 25 152 0.0 0.0 0.00 0.00 0.00 86 1011.5
20260506081849 25 145 3.2 6.4 0.00 0.00 0.00 86 1011.3
20260506081352 25 143 0.0 0.0 0.00 0.00 0.00 86 1011.6
20260506080849 25 142 0.0 0.0 0.00 0.00 0.00 86 1011.5
20260506080349 25 129 0.0 0.0 0.00 0.00 0.00 86 1011.2
20260506073349 26 140 0.0 0.0 0.00 0.00 0.00 84 1011.5
20260506072849 26 137 0.0 0.0 0.00 0.00 0.00 84 1011.2
20260506072352 26 153 1.6 3.2 0.00 0.00 0.00 84 1011.4
20260506071849 26 136 0.0 0.0 0.00 0.00 0.00 84 1011.4
20260506071352 26 154 1.6 3.2 0.00 0.00 0.00 84 1011.6
20260506070849 26 149 0.0 0.0 0.00 0.00 0.00 83 1011.5
20260506070349 26 110 0.0 0.0 0.00 0.00 0.00 83 1011.3
20260506062352 27 69 0.0 0.0 0.00 0.00 0.00 82 1011.1
20260506061848 27 132 0.0 0.0 0.00 0.00 0.00 82 1011.0
20260506061352 27 107 0.0 0.0 0.00 0.00 0.00 81 1011.1
20260506060849 27 84 0.0 0.0 0.00 0.00 0.00 81 1011.1
20260506060348 27 13 3.2 4.8 0.00 0.00 0.00 81 1011.2
20260506051352 28 77 0.0 0.0 0.00 0.00 0.00 79 1011.1
20260506050848 28 79 0.0 0.0 0.00 0.00 0.00 79 1011.2
20260506050349 28 93 0.0 0.0 0.00 0.00 0.00 79 1011.2
20260506044849 28 16 1.6 3.2 0.00 0.00 0.00 78 1011.1
20260506044352 28 7 3.2 3.2 0.00 0.00 0.00 77 1011.1
20260506043849 28 61 0.0 0.0 0.00 0.00 0.00 77 1011.1
20260506043348 28 86 1.6 3.2 0.00 0.00 0.00 77 1011.2
20260506042849 28 91 0.0 0.0 0.00 0.00 0.00 76 1011.1
20260506042352 28 90 0.0 0.0 0.00 0.00 0.00 76 1010.9
20260506041849 29 91 0.0 0.0 0.00 0.00 0.00 75 1011.0
20260506041352 29 80 0.0 0.0 0.00 0.00 0.00 75 1011.1
20260506040848 29 41 3.2 6.4 0.00 0.00 0.00 74 1010.9
20260506040349 29 70 0.0 0.0 0.00 0.00 0.00 74 1010.8
20260506035848 29 44 1.6 3.2 0.00 0.00 0.00 73 1010.8
20260506035352 29 11 0.0 0.0 0.00 0.00 0.00 73 1010.8
20260506034849 29 71 0.0 0.0 0.00 0.00 0.00 72 1010.7
20260506034352 29 5 3.2 4.8 0.00 0.00 0.00 72 1010.8
20260506033849 30 69 3.2 4.8 0.00 0.00 0.00 71 1010.7
20260506033348 30 56 0.0 0.0 0.00 0.00 0.00 71 1010.6
20260506032849 30 85 1.6 3.2 0.00 0.00 0.00 70 1010.3
20260506032352 30 23 1.6 3.2 0.00 0.00 0.00 70 1010.4
20260506031849 30 81 0.0 0.0 0.00 0.00 0.00 70 1010.2
20260506031352 30 34 1.6 3.2 0.00 0.00 0.00 69 1010.4
20260506030848 30 23 3.2 4.8 0.00 0.00 0.00 69 1010.5
20260506030349 30 30 1.6 3.2 0.00 0.00 0.00 69 1010.2
20260506025848 30 50 1.6 3.2 0.00 0.00 0.00 68 1010.3
20260506025352 30 42 1.6 3.2 0.00 0.00 0.00 68 1010.2
20260506024848 30 11 4.8 8.0 0.00 0.00 0.00 68 1009.8
20260506024352 30 29 3.2 4.8 0.00 0.00 0.00 68 1010.1
20260506023848 30 86 0.0 0.0 0.00 0.00 0.00 68 1009.9
20260506023349 30 85 0.0 0.0 0.00 0.00 0.00 68 1009.8
20260506022849 31 96 0.0 0.0 0.00 0.00 0.00 68 1010.1
20260506022352 31 19 3.2 4.8 0.00 0.00 0.00 67 1009.9
20260506021849 31 87 0.0 0.0 0.00 0.00 0.00 67 1009.7
20260506021352 31 49 1.6 3.2 0.00 0.00 0.00 67 1009.7
20260506020849 31 29 0.0 0.0 0.00 0.00 0.00 66 1009.7
20260506020348 31 59 0.0 0.0 0.00 0.00 0.00 66 1009.4
20260506015849 31 350 1.6 4.8 0.00 0.00 0.00 65 1009.3
20260506015352 31 89 0.0 0.0 0.00 0.00 0.00 65 1009.3
20260506014848 31 11 1.6 4.8 0.00 0.00 0.00 64 1009.3
20260506014352 31 101 0.0 0.0 0.00 0.00 0.00 64 1009.4
20260506013849 31 90 0.0 0.0 0.00 0.00 0.00 64 1009.3
20260506013349 31 99 0.0 0.0 0.00 0.00 0.00 63 1009.2
20260506012849 32 101 0.0 0.0 0.00 0.00 0.00 63 1009.0
20260506012352 32 59 0.0 0.0 0.00 0.00 0.00 63 1008.9
20260506011849 32 36 1.6 3.2 0.00 0.00 0.00 62 1008.8
20260506011352 32 96 0.0 0.0 0.00 0.00 0.00 62 1008.9
20260506010849 32 62 1.6 3.2 0.00 0.00 0.00 62 1008.7
20260506010348 32 58 0.0 0.0 0.00 0.00 0.00 61 1008.8
20260506005849 32 92 0.0 0.0 0.00 0.00 0.00 61 1008.8
20260506005352 33 30 1.6 3.2 0.00 0.00 0.00 59 1008.9
20260506004849 33 61 1.6 3.2 0.00 0.00 0.00 60 1009.0
20260506004353 33 350 4.8 4.8 0.00 0.00 0.00 59 1009.0
20260506003849 33 46 3.2 4.8 0.00 0.00 0.00 59 1008.9
20260506003349 33 111 0.0 0.0 0.00 0.00 0.00 60 1008.7
20260506002848 33 61 1.6 3.2 0.00 0.00 0.00 59 1009.1
20260506002352 33 87 1.6 3.2 0.00 0.00 0.00 59 1008.9
20260506001848 33 96 0.0 0.0 0.00 0.00 0.00 59 1008.9
20260506001352 33 96 0.0 0.0 0.00 0.00 0.00 58 1008.8
20260506000849 33 104 0.0 0.0 0.00 0.00 0.00 58 1008.9
20260506000349 33 105 0.0 0.0 0.00 0.00 0.00 58 1009.0
20260505235849 33 100 0.0 0.0 0.00 0.00 0.00 58 1008.8
20260505235352 33 111 0.0 0.0 0.00 0.00 0.00 57 1008.7
20260505234849 33 82 0.0 0.0 0.00 0.00 0.00 58 1008.6
20260505234352 33 17 1.6 4.8 0.00 0.00 0.00 58 1008.6
20260505233849 34 142 1.6 4.8 0.00 0.00 0.00 58 1008.6
20260505233349 33 25 6.4 9.7 0.00 0.00 0.00 58 1008.5
20260505232848 34 82 0.0 0.0 0.00 0.00 0.00 58 1008.6
20260505232352 34 62 1.6 3.2 0.00 0.00 0.00 58 1008.5
20260505231848 34 96 0.0 0.0 0.00 0.00 0.00 58 1008.5
20260505231352 34 110 0.0 0.0 0.00 0.00 0.00 59 1008.7
20260505230848 34 356 1.6 3.2 0.00 0.00 0.00 58 1008.6
20260505230349 34 103 1.6 4.8 0.00 0.00 0.00 58 1008.8
20260505225849 34 37 3.2 4.8 0.00 0.00 0.00 59 1008.8
20260505225352 34 47 1.6 3.2 0.00 0.00 0.00 59 1008.7
20260505224849 34 19 3.2 4.8 0.00 0.00 0.00 58 1008.7
20260505224353 34 68 1.6 3.2 0.00 0.00 0.00 59 1008.7
20260505223849 34 94 0.0 0.0 0.00 0.00 0.00 58 1008.7
20260505223349 33 152 0.0 0.0 0.00 0.00 0.00 58 1008.9
20260505222849 34 73 1.6 3.2 0.00 0.00 0.00 59 1008.7
20260505222352 34 74 0.0 0.0 0.00 0.00 0.00 60 1008.8
20260505221848 34 18 3.2 4.8 0.00 0.00 0.00 59 1008.9
20260505221352 34 151 1.6 3.2 0.00 0.00 0.00 59 1008.7
20260505220848 34 67 0.0 0.0 0.00 0.00 0.00 59 1008.9
20260505220349 35 170 0.0 0.0 0.00 0.00 0.00 58 1009.0
20260505215849 35 58 1.6 3.2 0.00 0.00 0.00 58 1009.0
20260505215352 35 172 3.2 6.4 0.00 0.00 0.00 59 1008.8
20260505214849 35 70 3.2 6.4 0.00 0.00 0.00 59 1009.0
20260505214353 35 168 0.0 0.0 0.00 0.00 0.00 59 1009.0
20260505213849 35 105 1.6 3.2 0.00 0.00 0.00 58 1009.2
20260505213349 35 138 0.0 0.0 0.00 0.00 0.00 60 1009.3
20260505212849 34 26 1.6 3.2 0.00 0.00 0.00 62 1009.4
20260505212352 35 275 1.6 3.2 0.00 0.00 0.00 61 1009.3
20260505211848 34 23 3.2 4.8 0.00 0.00 0.00 61 1009.6
20260505211352 34 77 6.4 8.0 0.00 0.00 0.00 61 1009.6
20260505210848 33 7 6.4 8.0 0.00 0.00 0.00 61 1009.7
20260505210349 34 72 3.2 4.8 0.00 0.00 0.00 61 1009.8
20260505205849 33 16 6.4 9.7 0.00 0.00 0.00 62 1010.0
20260505205352 35 9 8.0 11.3 0.00 0.00 0.00 61 1009.9
20260505204849 35 152 0.0 0.0 0.00 0.00 0.00 59 1009.8
20260505204352 34 147 3.2 4.8 0.00 0.00 0.00 59 1009.9
20260505203849 33 36 4.8 6.4 0.00 0.00 0.00 61 1010.0
20260505203348 33 146 1.6 3.2 0.00 0.00 0.00 60 1010.3
20260505202849 34 129 0.0 0.0 0.00 0.00 0.00 60 1010.3
20260505202353 34 60 1.6 3.2 0.00 0.00 0.00 58 1010.1
20260505201849 34 352 1.6 3.2 0.00 0.00 0.00 61 1010.4
20260505201352 34 337 9.7 11.3 0.00 0.00 0.00 62 1010.5
20260505200849 34 184 1.6 3.2 0.00 0.00 0.00 61 1010.6
20260505200348 33 117 0.0 0.0 0.00 0.00 0.00 63 1010.6
20260505195849 34 110 1.6 4.8 0.00 0.00 0.00 62 1010.6
20260505195352 34 140 3.2 6.4 0.00 0.00 0.00 62 1010.7
20260505194849 33 96 0.0 0.0 0.00 0.00 0.00 65 1010.6
20260505194353 33 80 0.0 0.0 0.00 0.00 0.00 63 1010.7
20260505193849 34 158 0.0 0.0 0.00 0.00 0.00 63 1010.9
20260505193349 33 124 0.0 0.0 0.00 0.00 0.00 62 1010.8
20260505192849 33 151 0.0 0.0 0.00 0.00 0.00 63 1010.9
20260505192353 33 121 0.0 0.0 0.00 0.00 0.00 64 1010.8
20260505191849 33 181 1.6 3.2 0.00 0.00 0.00 64 1011.0
20260505191352 33 172 0.0 0.0 0.00 0.00 0.00 65 1011.3
20260505190849 32 189 1.6 3.2 0.00 0.00 0.00 67 1011.3
20260505190348 32 161 1.6 3.2 0.00 0.00 0.00 68 1011.1
20260505185849 32 152 3.2 6.4 0.00 0.00 0.00 67 1011.6
20260505185352 32 122 4.8 6.4 0.00 0.00 0.00 67 1011.3
20260505184849 31 87 0.0 0.0 0.00 0.00 0.00 68 1011.6
20260505184353 32 150 1.6 4.8 0.00 0.00 0.00 68 1011.5
20260505183849 32 133 0.0 0.0 0.00 0.00 0.00 68 1011.8
20260505183348 31 199 1.6 3.2 0.00 0.00 0.00 68 1011.6
20260505182849 31 74 0.0 0.0 0.00 0.00 0.00 69 1011.7
20260505182352 32 154 0.0 0.0 0.00 0.00 0.00 68 1011.8
20260505181849 31 75 1.6 3.2 0.00 0.00 0.00 71 1011.9
20260505181352 31 142 6.4 8.0 0.00 0.00 0.00 70 1012.0
20260505180849 31 173 0.0 0.0 0.00 0.00 0.00 70 1012.1
20260505180349 31 209 0.0 0.0 0.00 0.00 0.00 71 1012.1
20260505175849 31 110 0.0 0.0 0.00 0.00 0.00 72 1012.1
20260505175352 30 21 1.6 4.8 0.00 0.00 0.00 73 1012.2
20260505174848 30 155 0.0 0.0 0.00 0.00 0.00 72 1012.2
20260505174352 31 156 3.2 6.4 0.00 0.00 0.00 74 1012.5
20260505173848 30 85 0.0 0.0 0.00 0.00 0.00 72 1012.6
20260505173349 30 150 0.0 0.0 0.00 0.00 0.00 73 1012.4
20260505172848 30 169 1.6 3.2 0.00 0.00 0.00 73 1012.7
20260505172352 30 120 0.0 0.0 0.00 0.00 0.00 74 1012.8
20260505171848 29 132 0.0 0.0 0.00 0.00 0.00 74 1012.8
20260505171353 29 91 1.6 4.8 0.00 0.00 0.00 75 1012.7
20260505170849 29 198 0.0 0.0 0.00 0.00 0.00 76 1012.8
20260505170349 28 170 1.6 3.2 0.00 0.00 0.00 77 1012.9
20260505165849 28 51 1.6 4.8 0.00 0.00 0.00 78 1012.6
20260505165352 28 30 1.6 3.2 0.00 0.00 0.00 77 1012.8
20260505164849 28 76 0.0 0.0 0.00 0.00 0.00 77 1012.7
20260505164352 28 63 1.6 3.2 0.00 0.00 0.00 78 1012.5
20260505163849 28 145 0.0 0.0 0.00 0.00 0.00 78 1012.7
20260505163348 27 66 0.0 0.0 0.00 0.00 0.00 79 1012.5
20260505162849 28 358 1.6 4.8 0.00 0.00 0.00 77 1012.5
20260505162352 28 174 1.6 3.2 0.00 0.00 0.00 77 1012.5
20260505161849 27 158 0.0 0.0 0.00 0.00 0.00 79 1012.6
20260505161352 28 139 3.2 4.8 0.00 0.00 0.00 79 1012.6
20260505160849 27 153 0.0 0.0 0.00 0.00 0.00 80 1012.5
20260505160348 27 149 0.0 0.0 0.00 0.00 0.00 78 1012.3
20260505153349 27 118 0.0 0.0 0.00 0.00 0.00 80 1012.7
20260505152849 27 114 0.0 0.0 0.00 0.00 0.00 80 1012.3
20260505152352 27 234 3.2 6.4 0.00 0.00 0.00 81 1012.6
20260505151849 26 87 0.0 0.0 0.00 0.00 0.00 81 1012.6
20260505151352 26 142 4.8 6.4 0.00 0.00 0.00 82 1012.6
20260505150848 25 135 1.6 3.2 0.00 0.00 0.00 83 1012.7
20260505150349 25 121 0.0 0.0 0.00 0.00 0.00 83 1012.4
20260505140349 23 140 1.6 3.2 0.00 0.00 0.00 87 1012.7